EW5956 Weather Reports


time (UTC)temp
C
wind
direction
speed
KPH
gust
KPH
rain 1hr
cm
rain 24hr
cm
rain mn
cm
humidity
%
barometer
mb
20260507155604 18 139 9.7 22.5 0.00 0.00 0.00 73 1013.4
20260507155105 18 113 6.4 16.1 0.00 0.00 0.00 74 1013.4
20260507154605 18 136 8.0 20.9 0.00 0.00 0.00 74 1013.4
20260507154105 18 127 12.9 20.9 0.00 0.00 0.00 74 1013.2
20260507153605 18 132 9.7 16.1 0.00 0.00 0.00 74 1013.3
20260507152605 17 138 11.3 22.5 0.00 0.00 0.00 75 1013.5
20260507152105 17 162 8.0 12.9 0.00 0.00 0.00 75 1013.5
20260507151105 17 122 11.3 24.1 0.00 0.00 0.00 75 1013.5
20260507150605 17 107 16.1 25.7 0.00 0.00 0.00 75 1013.5
20260507150113 17 153 9.7 24.1 0.00 0.00 0.00 75 1013.5
20260507145605 17 96 14.5 24.1 0.00 0.00 0.00 74 1013.5
20260507145105 17 116 11.3 20.9 0.00 0.00 0.00 75 1013.6
20260507144605 17 145 8.0 22.5 0.00 0.00 0.00 75 1013.5
20260507144105 17 128 16.1 25.7 0.00 0.00 0.00 75 1013.5
20260507143605 17 101 11.3 20.9 0.00 0.00 0.00 74 1013.5
20260507142105 17 93 19.3 25.7 0.00 0.00 0.00 74 1013.8
20260507141605 17 119 19.3 24.1 0.00 0.00 0.00 74 1013.5
20260507141105 17 104 9.7 22.5 0.00 0.00 0.00 74 1013.8
20260507140606 17 144 9.7 22.5 0.00 0.00 0.00 75 1013.5
20260507140112 17 100 11.3 20.9 0.00 0.00 0.00 75 1013.8
20260507135605 17 172 8.0 29.0 0.00 0.00 0.00 75 1013.6
20260507135105 17 113 17.7 29.0 0.00 0.00 0.00 76 1013.9
20260507134605 17 95 12.9 25.7 0.00 0.00 0.00 76 1013.8
20260507134104 17 107 20.9 25.7 0.00 0.00 0.00 77 1013.5
20260507133605 17 128 12.9 22.5 0.00 0.00 0.00 77 1013.5
20260507133105 17 119 9.7 20.9 0.00 0.00 0.00 78 1013.8
20260507132605 17 135 9.7 25.7 0.00 0.00 0.00 79 1013.7
20260507132105 17 119 12.9 25.7 0.00 0.00 0.00 79 1013.7
20260507130604 17 90 14.5 19.3 0.00 0.00 0.00 79 1013.9
20260507130112 17 127 8.0 27.4 0.00 0.00 0.00 80 1013.7
20260507125605 17 100 16.1 29.0 0.00 0.00 0.00 79 1013.6
20260507125105 18 117 11.3 29.0 0.00 0.00 0.00 79 1013.9
20260507124605 18 103 1.6 22.5 0.00 0.00 0.00 79 1013.8
20260507124105 17 111 14.5 22.5 0.00 0.00 0.00 79 1013.9
20260507123105 17 93 16.1 24.1 0.00 0.00 0.00 80 1013.6
20260507122604 17 146 8.0 19.3 0.00 0.00 0.00 80 1013.8
20260507122105 17 128 14.5 22.5 0.00 0.00 0.00 80 1013.9
20260507121604 17 148 11.3 19.3 0.00 0.00 0.00 80 1013.9
20260507121105 17 111 11.3 22.5 0.00 0.00 0.00 81 1013.9
20260507120605 17 103 8.0 16.1 0.00 0.00 0.00 80 1014.1
20260507115604 17 146 6.4 16.1 0.00 0.00 0.00 81 1014.2
20260507115105 17 129 6.4 12.9 0.00 0.00 0.00 80 1013.9
20260507114604 17 126 8.0 12.9 0.00 0.00 0.00 81 1013.9
20260507114105 17 128 8.0 14.5 0.00 0.00 0.00 81 1014.1
20260507113604 17 141 6.4 20.9 0.00 0.00 0.00 81 1014.1
20260507112605 18 129 8.0 14.5 0.00 0.00 0.00 79 1014.0
20260507112105 17 136 3.2 11.3 0.00 0.00 0.00 79 1013.9
20260507111605 17 167 11.3 20.9 0.00 0.00 0.00 79 1013.9
20260507111105 17 200 3.2 19.3 0.00 0.00 0.00 80 1013.9
20260507110605 17 150 9.7 19.3 0.00 0.00 0.00 80 1014.1
20260507110111 17 110 11.3 19.3 0.00 0.00 0.00 78 1013.9
20260507105604 18 173 1.6 9.7 0.00 0.00 0.00 77 1014.2
20260507105104 18 147 4.8 12.9 0.00 0.00 0.00 76 1014.2
20260507104604 18 191 3.2 8.0 0.00 0.00 0.00 76 1014.1
20260507104104 18 202 4.8 8.0 0.00 0.00 0.00 76 1014.0
20260507103104 17 121 8.0 19.3 0.00 0.00 0.00 77 1014.0
20260507102605 17 125 8.0 16.1 0.00 0.00 0.00 78 1014.2
20260507102105 17 40 8.0 16.1 0.00 0.00 0.00 77 1014.2
20260507101605 17 94 11.3 19.3 0.00 0.00 0.00 77 1014.2
20260507101104 17 129 4.8 14.5 0.00 0.00 0.00 77 1014.2
20260507100605 17 166 8.0 12.9 0.00 0.00 0.00 78 1014.2
20260507100111 17 126 4.8 14.5 0.00 0.00 0.00 77 1014.2
20260507095604 17 156 4.8 24.1 0.00 0.00 0.00 77 1014.2
20260507094105 17 117 9.7 29.0 0.00 0.00 0.00 74 1014.0
20260507093605 18 71 8.0 24.1 0.00 0.00 0.00 75 1013.9
20260507092104 17 92 17.7 27.4 0.00 0.00 0.00 76 1013.6
20260507091605 17 113 11.3 22.5 0.00 0.00 0.00 77 1013.5
20260507091105 16 303 12.9 29.0 0.00 0.00 0.00 77 1013.4
20260507090604 16 117 9.7 35.4 0.00 0.00 0.00 77 1013.5
20260507085105 16 100 17.7 24.1 0.00 0.00 0.00 76 1013.4
20260507084605 16 92 22.5 38.6 0.00 0.00 0.00 76 1013.3
20260507084105 16 112 17.7 27.4 0.00 0.00 0.00 77 1013.5
20260507083604 16 79 12.9 33.8 0.00 0.00 0.00 77 1013.5
20260507083105 16 97 16.1 22.5 0.00 0.00 0.00 78 1013.2
20260507082605 16 116 20.9 38.6 0.00 0.00 0.00 79 1013.5
20260507082104 16 136 14.5 32.2 0.00 0.00 0.00 78 1013.2
20260507081605 16 80 17.7 33.8 0.00 0.00 0.00 79 1013.0
20260507075605 16 83 20.9 32.2 0.00 0.00 0.00 80 1013.2
20260507075105 16 93 25.7 37.0 0.00 0.00 0.00 80 1013.1
20260507074606 16 58 11.3 27.4 0.00 0.00 0.00 80 1013.2
20260507074105 15 117 11.3 24.1 0.00 0.00 0.00 80 1013.2
20260507073606 15 101 19.3 35.4 0.00 0.00 0.00 80 1013.1
20260507073105 15 120 9.7 25.7 0.00 0.00 0.00 81 1013.0
20260507072605 15 92 11.3 22.5 0.00 0.00 0.00 81 1013.1
20260507072105 15 116 12.9 37.0 0.00 0.00 0.00 81 1013.2
20260507071604 15 117 22.5 32.2 0.00 0.00 0.00 81 1013.1
20260507071105 15 85 6.4 22.5 0.00 0.00 0.00 82 1013.4
20260507070605 15 191 9.7 35.4 0.00 0.00 0.00 82 1012.9
20260507070115 15 115 20.9 37.0 0.00 0.00 0.00 82 1013.0
20260507065606 15 106 25.7 37.0 0.00 0.00 0.00 82 1012.9
20260507064605 15 101 19.3 51.5 0.00 0.00 0.00 82 1012.9
20260507064106 15 104 20.9 51.5 0.00 0.00 0.00 82 1013.2
20260507063605 15 120 19.3 37.0 0.00 0.00 0.00 82 1013.2
20260507063105 16 66 19.3 41.8 0.00 0.00 0.00 82 1013.1
20260507062104 16 111 17.7 38.6 0.00 0.00 0.00 81 1012.9
20260507061105 16 94 20.9 49.9 0.00 0.00 0.00 79 1013.2
20260507060605 16 102 19.3 49.9 0.00 0.00 0.00 79 1013.2
20260507055605 16 203 6.4 22.5 0.00 0.00 0.00 80 1013.2
20260507055105 16 86 20.9 29.0 0.00 0.00 0.00 80 1013.4
20260507054105 15 112 9.7 20.9 0.00 0.00 0.00 81 1013.4
20260507053605 15 70 9.7 14.5 0.00 0.00 0.00 81 1013.5
20260507053105 15 55 11.3 25.7 0.00 0.00 0.00 80 1013.5
20260507052606 15 92 8.0 16.1 0.00 0.00 0.00 80 1013.5
20260507052104 15 120 9.7 20.9 0.00 0.00 0.00 80 1013.5
20260507051605 16 141 8.0 19.3 0.00 0.00 0.00 80 1013.5
20260507051105 15 92 11.3 20.9 0.00 0.00 0.00 79 1013.2
20260507050113 15 144 9.7 16.1 0.00 0.00 0.00 78 1013.4
20260507045606 15 129 6.4 16.1 0.00 0.00 0.00 79 1013.5
20260507045105 15 70 11.3 27.4 0.00 0.00 0.00 79 1013.2
20260507044605 16 119 6.4 19.3 0.00 0.00 0.00 77 1013.2
20260507044106 16 104 6.4 19.3 0.00 0.00 0.00 74 1012.9
20260507043608 16 37 8.0 12.9 0.00 0.00 0.00 72 1013.1
20260507043105 16 316 6.4 9.7 0.00 0.00 0.00 71 1013.0
20260507042105 16 191 1.6 8.0 0.00 0.00 0.00 70 1012.9
20260507041605 16 105 4.8 14.5 0.00 0.00 0.00 69 1012.6
20260507041105 17 185 3.2 12.9 0.00 0.00 0.00 70 1012.9
20260507040605 17 161 4.8 16.1 0.00 0.00 0.00 70 1012.9
20260507040114 17 214 4.8 20.9 0.00 0.00 0.00 70 1012.6
20260507035105 17 135 11.3 25.7 0.00 0.00 0.00 71 1011.9
20260507034605 17 115 17.7 27.4 0.00 0.00 0.00 70 1011.6
20260507034105 17 125 17.7 38.6 0.00 0.00 0.00 70 1011.3
20260507033605 17 126 17.7 48.3 0.00 0.00 0.00 70 1011.2
20260507033105 17 132 12.9 46.7 0.00 0.00 0.00 70 1011.2
20260507032106 17 116 19.3 33.8 0.00 0.00 0.00 70 1011.2
20260507031105 17 116 20.9 35.4 0.00 0.00 0.00 70 1011.2
20260507030606 17 114 27.4 45.1 0.00 0.00 0.00 70 1011.2
20260507030119 17 119 25.7 40.2 0.00 0.00 0.00 70 1011.2
20260507025606 17 91 19.3 37.0 0.00 0.00 0.00 70 1011.0
20260507024605 17 127 22.5 41.8 0.00 0.00 0.00 70 1011.4
20260507023605 17 123 16.1 40.2 0.00 0.00 0.00 70 1011.2
20260507023105 17 88 29.0 41.8 0.00 0.00 0.00 70 1011.2
20260507022605 17 128 30.6 45.1 0.00 0.00 0.00 71 1011.2
20260507022105 17 126 27.4 38.6 0.00 0.00 0.00 71 1011.2
20260507021605 17 79 29.0 38.6 0.00 0.00 0.00 71 1011.2
20260507021105 17 107 19.3 38.6 0.00 0.00 0.00 70 1011.2
20260507020605 17 118 19.3 37.0 0.00 0.00 0.00 70 1011.5
20260507015606 17 103 24.1 40.2 0.00 0.00 0.00 70 1011.2
20260507015105 17 120 27.4 41.8 0.00 0.00 0.00 70 1011.3
20260507014605 17 118 25.7 41.8 0.00 0.00 0.00 70 1011.2
20260507014110 17 79 14.5 33.8 0.00 0.00 0.00 70 1011.2
20260507013606 17 91 20.9 45.1 0.00 0.00 0.00 70 1011.2
20260507013105 17 91 20.9 49.9 0.00 0.00 0.00 70 1011.3
20260507012606 17 82 29.0 40.2 0.00 0.00 0.00 70 1011.5
20260507012106 17 115 20.9 38.6 0.00 0.00 0.00 70 1011.3
20260507011605 17 102 16.1 38.6 0.00 0.00 0.00 70 1011.5
20260507010605 17 128 16.1 38.6 0.00 0.00 0.00 70 1011.2
20260507010114 17 91 29.0 40.2 0.00 0.00 0.00 70 1011.3
20260507005605 17 83 19.3 40.2 0.00 0.00 0.00 69 1011.2
20260507004606 17 107 20.9 35.4 0.00 0.00 0.00 68 1011.2
20260507004105 17 95 27.4 45.1 0.00 0.00 0.00 67 1011.5
20260507003605 17 92 17.7 37.0 0.00 0.00 0.00 65 1011.5
20260507003105 17 90 24.1 37.0 0.00 0.00 0.00 65 1011.7
20260507002604 18 99 22.5 29.0 0.00 0.00 0.00 64 1011.9
20260507002105 18 128 20.9 33.8 0.00 0.00 0.00 64 1011.9
20260507001605 18 86 20.9 41.8 0.00 0.00 0.00 64 1011.7
20260507001105 18 123 32.2 41.8 0.00 0.00 0.00 64 1011.8
20260507000605 18 100 20.9 33.8 0.00 0.00 0.00 63 1011.6
20260506235605 18 126 22.5 38.6 0.00 0.00 0.00 64 1011.9
20260506234105 18 107 12.9 33.8 0.00 0.00 0.00 65 1012.0
20260506233605 18 122 19.3 29.0 0.00 0.00 0.00 66 1012.1
20260506233106 18 94 20.9 35.4 0.00 0.00 0.00 66 1012.1
20260506232605 18 105 14.5 33.8 0.00 0.00 0.00 67 1012.2
20260506232105 18 99 22.5 29.0 0.00 0.00 0.00 67 1012.2
20260506231605 18 106 19.3 29.0 0.00 0.00 0.00 68 1012.5
20260506231105 18 101 24.1 33.8 0.00 0.00 0.00 68 1012.3
20260506230605 18 155 17.7 25.7 0.00 0.00 0.00 67 1012.2
20260506230115 18 136 16.1 37.0 0.00 0.00 0.00 67 1012.2
20260506225606 18 94 16.1 27.4 0.00 0.00 0.00 67 1012.0
20260506224605 18 106 24.1 46.7 0.00 0.00 0.00 66 1012.4
20260506224105 18 101 24.1 37.0 0.00 0.00 0.00 67 1012.5
20260506223605 18 96 27.4 38.6 0.00 0.00 0.00 67 1012.4
20260506221606 18 119 19.3 29.0 0.00 0.00 0.00 68 1012.5
20260506221105 18 111 17.7 33.8 0.00 0.00 0.00 68 1012.2
20260506220605 18 84 16.1 32.2 0.00 0.00 0.00 68 1012.4
20260506220114 18 93 11.3 29.0 0.00 0.00 0.00 68 1012.5
20260506215105 18 121 19.3 33.8 0.00 0.00 0.00 68 1012.3
20260506214605 18 129 20.9 27.4 0.00 0.00 0.00 68 1012.4
20260506214105 18 147 19.3 33.8 0.00 0.00 0.00 68 1012.4
20260506213605 18 112 8.0 38.6 0.00 0.00 0.00 68 1012.5
20260506213105 18 92 19.3 38.6 0.00 0.00 0.00 68 1012.5
20260506212605 18 94 11.3 38.6 0.00 0.00 0.00 68 1012.2
20260506212106 18 155 14.5 40.2 0.00 0.00 0.00 68 1012.5
20260506211605 18 75 19.3 40.2 0.00 0.00 0.00 69 1012.2
20260506211105 18 103 20.9 35.4 0.00 0.00 0.00 69 1012.5
20260506210604 18 125 19.3 35.4 0.00 0.00 0.00 69 1012.5
20260506210115 18 129 17.7 33.8 0.00 0.00 0.00 68 1012.6
20260506205105 18 90 19.3 27.4 0.00 0.00 0.00 69 1012.5
20260506203606 18 115 19.3 37.0 0.00 0.00 0.00 68 1012.6
20260506203105 18 65 12.9 33.8 0.00 0.00 0.00 68 1012.9
20260506202605 18 92 19.3 33.8 0.00 0.00 0.00 67 1012.9
20260506202105 18 91 9.7 33.8 0.00 0.00 0.00 66 1012.9
20260506201605 18 127 17.7 38.6 0.00 0.00 0.00 66 1012.9
20260506200605 18 90 22.5 38.6 0.00 0.00 0.00 65 1012.6
20260506200113 18 95 14.5 32.2 0.00 0.00 0.00 64 1012.7
20260506195605 18 111 24.1 38.6 0.00 0.00 0.00 64 1012.9
20260506195106 18 131 16.1 32.2 0.00 0.00 0.00 64 1012.8
20260506194605 18 85 14.5 33.8 0.00 0.00 0.00 65 1012.9
20260506194106 18 129 22.5 33.8 0.00 0.00 0.00 64 1012.9
20260506192605 18 120 14.5 29.0 0.00 0.00 0.00 63 1012.6
20260506191605 18 107 20.9 35.4 0.00 0.00 0.00 63 1012.6
20260506191105 18 91 11.3 27.4 0.00 0.00 0.00 63 1012.7
20260506190605 18 113 14.5 38.6 0.00 0.00 0.00 62 1012.7
20260506190113 18 95 19.3 38.6 0.00 0.00 0.00 62 1012.6
20260506185105 18 94 19.3 33.8 0.00 0.00 0.00 62 1012.9
20260506184605 18 92 19.3 35.4 0.00 0.00 0.00 62 1012.3
20260506183605 18 91 11.3 33.8 0.00 0.00 0.00 62 1012.5
20260506183105 18 137 12.9 24.1 0.00 0.00 0.00 62 1012.2
20260506182105 18 97 19.3 29.0 0.00 0.00 0.00 62 1012.5
20260506180605 18 83 12.9 24.1 0.00 0.00 0.00 61 1012.4
20260506180114 18 94 12.9 25.7 0.00 0.00 0.00 61 1012.3
20260506175605 18 74 19.3 25.7 0.00 0.00 0.00 60 1012.3
20260506175105 18 126 16.1 27.4 0.00 0.00 0.00 60 1012.4
20260506174605 18 112 12.9 27.4 0.00 0.00 0.00 60 1012.5
20260506173605 18 104 17.7 29.0 0.00 0.00 0.00 58 1012.3
20260506173106 18 103 17.7 29.0 0.00 0.00 0.00 58 1012.3
20260506172606 18 110 12.9 24.1 0.00 0.00 0.00 58 1012.3
20260506172105 18 140 19.3 33.8 0.00 0.00 0.00 57 1012.3
20260506171606 18 119 19.3 33.8 0.00 0.00 0.00 57 1012.1
20260506171104 18 121 16.1 33.8 0.00 0.00 0.00 57 1012.2
20260506170605 18 121 19.3 33.8 0.00 0.00 0.00 56 1012.2
20260506170115 18 119 11.3 24.1 0.00 0.00 0.00 56 1012.2
20260506165605 18 100 11.3 33.8 0.00 0.00 0.00 56 1012.1
20260506165105 18 135 17.7 27.4 0.00 0.00 0.00 56 1012.2
20260506164605 18 111 11.3 32.2 0.00 0.00 0.00 57 1012.2
20260506164105 18 140 11.3 27.4 0.00 0.00 0.00 57 1012.1
20260506163605 18 100 19.3 25.7 0.00 0.00 0.00 56 1012.2
20260506162605 19 99 16.1 35.4 0.00 0.00 0.00 55 1012.2
20260506162105 19 127 9.7 24.1 0.00 0.00 0.00 55 1012.5
20260506161606 18 161 16.1 37.0 0.00 0.00 0.00 55 1012.6
20260506161105 18 125 16.1 40.2 0.00 0.00 0.00 54 1012.5
20260506160606 18 105 16.1 32.2 0.00 0.00 0.00 54 1012.2
20260506160114 19 90 16.1 32.2 0.00 0.00 0.00 54 1012.2